Location: Cosy Dell
(34.2789°N, 117.4537°W)
Time: 19:55:32
(UTC+00:00)

H-2A R/B - Pass Details

Date: 14 July 2020
Orbit: 577 x 656 km, 98.5° (Epoch: 13 August)

Event Time Altitude Azimuth Distance (km) Brightness Sun altitude
Exits shadow 11:42:27 - 179° (S) 2,670 5.0 -12.4°
Reaches altitude 10° 11:44:03 10° 183° (S) 2,024 4.3 -12.2°
Maximum altitude 11:48:21 51° 259° (W) 795 2.3 -11.5°
Drops below altitude 10° 11:52:34 10° 336° (NNW) 1,992 4.8 -10.8°
Sets 11:54:48 0° 341° (NNW) 2,889 5.7 -10.4°
